Regional Weather Roundup
Issued by NWS Kansas City/Pleasant Hill, MO

Home | Current Version | Previous Version | Graphics & Text | Print | Product List | Glossary Off
Versions: 1 2 3 4 5 6 7 8 9 10 11 12 13 14 15 16 17 18 19 20 21 22 23 24 25 26 27 28 29 30 31 32 33 34 35 36 37 38 39 40 41 42 43 44 45 46 47 48 49 50

000
ASUS43 KEAX 290810
RWREAX

WEATHER ROUNDUP FOR EASTERN KANSAS AND NORTHWEST MISSOURI
NATIONAL WEATHER SERVICE KANSAS CITY/PLEASANT HILL MO
300 AM CDT SAT AUG 29 2015

KSZ040-057-103>105-MOZ028-029-037-043-290900-
...KANSAS CITY METROPOLITAN AREA...

CITY           SKY/WX    TMP DP  RH WIND       PRES   REMARKS
K.C. INTL      CLOUDY    71  68  90 SW9       29.93S
K.C. DOWNTOWN  CLOUDY    73  69  87 SW8       29.91F
LEES SUMMIT    MOCLDY    71  67  87 SW8       29.94F
OLATHE - IXD   CLOUDY    70  69  97 SW6       29.94F
OLATHE - OJC   CLOUDY    70  68  93 S7        29.93F
LAWRENCE       CLOUDY    69  68  96 NW5       29.93S

$$

MOZ001>008-011>017-020>025-030>033-038>040-044>046-053-054-290900-
...NORTHERN AND CENTRAL MISSOURI...

CITY           SKY/WX    TMP DP  RH WIND       PRES   REMARKS
ST. JOSEPH     MOCLDY    67  65  93 NW6       29.93S
MOSBY          CLOUDY    70  68  94 CALM      29.92S
WARRENSBURG    MOCLDY    68  64  88 S5        29.94S
WHITEMAN AFB   PTCLDY    68  64  86 S8        29.94F
CLINTON          N/A     72  66  83 CALM      29.96S
SEDALIA        CLOUDY    71  63  75 S8        29.96F
WARSAW         NOT AVBL
CHILLICOTHE      N/A     70  68  93 CALM      29.94S
KIRKSVILLE     CLOUDY    68  63  84 S7        29.95F

$$

MOZ041-047>049-056>058-063>065-088>090-097-290900-
...EASTERN AND SOUTHERN MISSOURI...

CITY           SKY/WX    TMP DP  RH WIND       PRES   REMARKS
ST. LOUIS INTL NOT AVBL
SPIRIT OF STL  MOCLDY    70  64  81 NW3       30.02S
COLUMBIA       CLOUDY    69  63  81 SE10      29.98F
JEFFERSON CITY CLOUDY    72  61  68 E7        29.97F
ROLLA          MOCLDY    68  61  78 S9        30.00S
OSAGE BEACH    CLOUDY    70  59  68 SE5       29.98F
SPRINGFIELD    CLOUDY    71  60  68 S14       29.99F
BRANSON        LGT RAIN  68  63  83 SE12      30.04F
JOPLIN         CLOUDY    71  63  75 S5        29.98R
WEST PLAINS    MOCLDY    69  61  75 S5        30.06S

$$

IAZ060-094-KSZ022-034>040-054-083-096-NEZ052-066-093-290900-
...KANSAS...SOUTHEAST NEBRASKA AND IOWA...

CITY           SKY/WX    TMP DP  RH WIND       PRES   REMARKS
TOPEKA         PTCLDY    68  66  93 W6        29.94F
MANHATTAN      MOCLDY    66  64  93 W3        29.97F
EMPORIA        MOCLDY    68  65  90 NW8       29.97S
CHANUTE        CLOUDY    70  68  93 S3        29.96S
WICHITA        PTCLDY    72  66  81 N9        29.98S
OMAHA          CLOUDY    63  62  97 N9        29.97S
LINCOLN        CLOUDY    64  61  90 N6        30.00S
FALLS CITY     CLOUDY    66  64  93 NW8       29.94R
LAMONI         CLOUDY    70  68  93 S5        29.93R
DES MOINES     DRZL/FOG  66  64  93 NW12      29.92R VSB 1/2

$$



USA.gov is the U.S. government's official web portal to all federal, state and local government web resources and services.